Regional Weather Roundup
Issued by NWS Grand Forks, ND

Home | Current Version | Previous Version | Text Only | Print | Product List | Glossary Off
Versions: 1 2 3 4 5 6 7 8 9 10 11 12 13 14 15 16 17 18 19 20 21 22 23 24 25 26 27 28 29 30 31 32 33 34 35 36 37 38 39 40 41 42 43 44 45 46 47 48 49 50

000
ASUS43 KFGF 261910
RWRFGF
PRAIRIE TO PINES  WEATHER ROUNDUP
NATIONAL WEATHER SERVICE EASTERN NORTH DAKOTA/GRAND FORKS ND
200 PM CDT MON SEP 26 2016

 **SATELLITE DATA USED TO AUGMENT SKY COVER AT AUTOMATED STATIONS**
 *****  WEATHER ACROSS EASTERN NORTH DAKOTA  *****

CITY           SKY/WX    TMP DP  RH WIND       PRES   REMARKS
GRAND FORKS    MOSUNNY   62  40  44 NW28G36   29.92F
GRAND FRKS AFB SUNNY     62  38  41 NW20G30   29.93F
DEVILS LAKE    SUNNY     61  31  32 NW28G37   30.00F
FARGO          SUNNY     65  31  28 NW29G38   29.94F
WAHPETON ARPT  CLEAR     64  28  25 NW28G44   29.97S
$$

 ***** WEATHER ACROSS CENTRAL AND WESTERN NORTH DAKOTA  *****

CITY           SKY/WX    TMP DP  RH WIND       PRES   REMARKS
BISMARCK       SUNNY     67  34  29 NW17G26   30.14F
MINOT          SUNNY     65  35  33 NW17G26   30.11F
JAMESTOWN      SUNNY     63  34  33 NW30G39   30.03F
MINOT AFB      SUNNY     64  35  33 NW23G31   30.09F
GARRISON         N/A     64  33  31 NW22G32   30.13F
WILLISTON      SUNNY     67  35  30 NW16G23   30.19F
DICKINSON      SUNNY     64  32  30 NW18G24   30.18F
HETTINGER      SUNNY     67  38  34 NW17      30.21F
$$

 *****  OTHER AIRPORT OBSERVATIONS IN OUR AREA  *****

CITY           SKY/WX    TMP DP  RH WIND       PRES   REMARKS
WALHALLA       FAIR      59  55  88 NW21G33   29.93F
GRAFTON AIRPOR FAIR      61  43  51 NW23G31   29.94S
VALLEY CITY AR FAIR      63  32  31 NW31G43   30.02F
CANDO          FAIR      64  27  24 NW23G31   30.03F
CAVALIER APRT  FAIR      59  41  51 NW23G32   29.92S
GWINNER        FAIR      66  34  30 NW28G35   30.03F
SHEYENNE NWR     N/A     65  29  26 NW24      29.95
ROLLA          FAIR      59  23  25 NW28G43   30.01F
 ***** THE ABOVE OBSERVATIONS ARE NON NWS ARE NOT QUALITY
       CONTROLLED AND MAY MIS-REPORT RAIN FOR SNOW...
$$

  *****  WEATHER ACROSS NORTHERN MINNESOTA  *****

CITY           SKY/WX    TMP DP  RH WIND       PRES   REMARKS
FLAG ISLAND    CLOUDY    52  46  82 NW26G35   29.73R
WARROAD        CLOUDY    54  46  76 W22G31    29.79R
ROSEAU         CLOUDY    55  46  71 NW20      29.82S
HALLOCK        CLOUDY    57  45  62 NW18      29.89F
THF RVR FALLS  CLOUDY    56  41  57 NW24G30   29.90S
BAUDETTE       CLOUDY    53  44  71 NW21G32   29.74S
WASKISH        CLOUDY    55  45  67 W23G33    29.78S
CROOKSTON      MOSUNNY   61  43  51 NW20G28   29.92S
GREENBUSH NDAW   N/A     55  46  71 W20         N/A
$$
  *****  WEATHER ACROSS CENTRAL AND WEST MINNESOTA  *****

CITY           SKY/WX    TMP DP  RH WIND       PRES   REMARKS
FOSSTON        PTSUNNY   57  39  51 NW23G36   29.90S
BEMIDJI        CLOUDY    56  41  55 NW29G36   29.84F
PARK RAPIDS    PTSUNNY   58  35  42 NW30G38   29.87S
ELBOW LAKE     FAIR      63  33  32 NW21G36   29.96F
WADENA         NOT AVBL
DETROIT LAKES  SUNNY     59  34  38 NW28G37   29.93S
MOORHEAD       SUNNY     64  30  27 NW31G41   29.94F
FERGUS FALLS   SUNNY     63  32  31 NW26G35   29.96F
MORRIS MN      SUNNY     66  34  30 NW33G41   29.96F
STAPLES        MOSUNNY   61  34  36 NW31G39   29.88F
$$
  *****  WEATHER ELSEWHERE ACROSS MINNESOTA  *****

CITY           SKY/WX    TMP DP  RH WIND       PRES   REMARKS
DULUTH         CLOUDY    51  45  79 W17G31    29.72S
INTRNTL FALLS  LGT RAIN  50  47  89 W15G26    29.66F
ELY            LGT RAIN  48  46  93 W20G29    29.62S
CLOQUET        CLOUDY    54  39  58 W15       29.75F
WHEATON        NOT AVBL
BRAINERD       CLOUDY    60  37  42 NW20G32   29.86S
HIBBING        LGT RAIN  50  42  74 W15G23    29.72S
ALEXANDRIA     SUNNY     63  30  28 NW26G39   29.95F
SAINT CLOUD    MOSUNNY   62  39  42 NW30G41   29.90F
MINNEAPOLIS    MOSUNNY   62  39  42 NW18G32   29.91F
$$

  *****  WEATHER ACROSS SOUTH DAKOTA  *****

CITY           SKY/WX    TMP DP  RH WIND       PRES   REMARKS
SIOUX FALLS    MOSUNNY   69  41  36 NW20G33   30.10F
BROOKINGS      SUNNY     65  33  30 NW18G30   30.07F
WATERTOWN      SUNNY     65  33  30 NW20G28   30.07F
HURON          SUNNY     73  33  23 NW25G36   30.09F
SISSETON         N/A     69  32  25 NW22G36   30.00F
ABERDEEN       SUNNY     70  30  22 NW22G31   30.09F
MITCHELL       MOSUNNY   73  35  25 NW15G25   30.12F
PIERRE         SUNNY     70  38  31 NW17G24   30.16F
MOBRIDGE       SUNNY     71  35  26 NW18G28   30.11F
RAPID CITY     SUNNY     73  40  30 N23G30    30.23F
$$

  *****  SOME WEATHER IN NEARBY STATES *****

CITY           SKY/WX    TMP DP  RH WIND       PRES   REMARKS
GLASGOW MT     SUNNY     67  43  41 W8        30.22F
GREAT FALLS MT SUNNY     74  41  30 SW15      30.23F
CHEYENNE WY    SUNNY     68  33  27 NW14G25   30.39F
SCOTTSBLUFF NE SUNNY     72  39  30 W5G17     30.32F
OMAHA NE       MOSUNNY   75  41  29 W17G24    30.15F
DES MOINES IA  MOSUNNY   72  37  28 NW20G29   30.09F
DAVENPORT IA   SUNNY     70  32  24 W21G37    30.03F
CHICAGO IL     MOSUNNY   69  37  30 W23G31    29.93F
EAU CLAIRE WI  MOSUNNY   61  38  42 W18G35    29.84F
LA CROSSE WI   PTSUNNY   68  37  32 W23G32    29.88F
$$

  *****  SOME NATIONAL WEATHER *****

CITY           SKY/WX    TMP DP  RH WIND       PRES   REMARKS
LA GUARDIA NY  PTSUNNY   72  50  45 S14G26    30.10F
RALEIGH NC     PTSUNNY   73  63  70 SE7       30.08F
ATLANTA GA     MOSUNNY   86  60  41 VRB6      30.04F
NEW ORLEANS LA MOSUNNY   93  71  48 NE7       29.97F HX 100
OKLAHOMA CITY  MOSUNNY   75  36  24 N18       30.25F
ALBUQUERQUE NM PTSUNNY   68  34  28 VRB3      30.40F
SALT LAKE CITY MOSUNNY   68  46  45 NW6       30.38F
LOS ANGELES CA MOSUNNY  100  25   7 W5        29.91F HX  93
BOISE ID       SUNNY     77  35  21 S13       30.30F
SEATTLE WA     MOSUNNY   67  54  63 NW7       30.09F
$$

*** WEATHER ACROSS MANITOBA...SASKATCHEWAN AND ONTARIO ***
                ***ONTARIO***

CITY           SKY/WX    TMP DP  RH WIND       PRES   REMARKS
GERALDTON      PTSUNNY   59  48  67 SE8       29.37F
THUNDER BAY    LGT RAIN  54  52  94 W12G17    29.43F
SIOUX LOOKOUT  LGT RAIN  50  48  93 NW14G22   29.48S FOG
TORONTO        LGT RAIN  64  63  94 S6        29.81F
BIG TROUT LK   CLOUDY    55  55 100 E5        29.44R FOG
PICKLE LAKE    DRIZZLE   52  52 100 NW6       29.38F FOG
DRYDEN         LGT RAIN  48  46  93 W13G24    29.54S
KENORA         LGT RAIN  50  48  93 NW15G25   29.66S
$$
                *** MANITOBA***

CITY           SKY/WX    TMP DP  RH WIND       PRES   REMARKS
BRANDON        SUNNY     61  32  33 NW23G33   30.01S
DAUPHIN        SUNNY     61  41  48 N16G22    29.98F
ISLAND LAKE    LGT RAIN  50  48  93 N15G29    29.67R
PILOT MOUND    NOT AVBL
THE PAS        MOSUNNY   55  43  62 NW16      30.00R
THOMPSON       CLOUDY    52  45  76 NW18G26   29.84S
WINNIPEG       PTSUNNY   55  46  71 NW26G35   29.88S
LYNN LAKE      CLOUDY    48  39  71 N12G24    30.00R
CHURCHILL      CLOUDY    46  43  87 N25G38    29.72R
GILLAM         LGT RAIN  50  45  81 N22G28    29.71R
$$
                ***SASKATCHEWAN***

CITY           SKY/WX    TMP DP  RH WIND       PRES   REMARKS
ESTEVAN        MOSUNNY   64  34  32 NW21G26   30.14F
KINDERSLEY     MOSUNNY   66  37  34 S8        30.13F
LLOYDMINSTER   MOSUNNY   66  41  39 S14       30.07F
PRINCE ALBERT  MOSUNNY   63  37  39 NW7       30.10F
REGINA         MOSUNNY   63  36  36 NW12G20   30.15F
YORKTON        SUNNY     59  34  38 NW22G31   30.08S
N. BATTLEFORD  SUNNY     66  36  32 S7        30.12F
LA RONGE       SUNNY     61  34  36 W7        30.08F
SASKATOON      MOSUNNY   64  34  32 NW7       30.14F
SWIFT CURRENT  SUNNY     64  37  36 W7        30.16F
$$
NOTE: THESE ARE AUTOMATED STATIONS WITH LIMITED QUALITY CONTROL
      "FAIR" INDICATES FEW OR NO CLOUDS BELOW 12,000 FEET WITH NO
      SIGNIFICANT WEATHER AND/OR OBSTRUCTIONS TO VISIBILITY.
      SKY/WX - SKY CONDITION AND SIGNIFICANT WEATHER.
      TMP - AIR TEMPERATURE.    DP   - DEWPOINT TEMPERATURE.
      RH  - RELATIVE HUMIDITY.  PRES - PRESSURE.
      HX  - HEAT INDEX.         WCI  - WIND CHILL INDEX.
$




USA.gov is the U.S. government's official web portal to all federal, state and local government web resources and services.